Mukilteo, WA

9:45 AM PST on December 09, 2016 (GMT -0800)
Snohomish County

Weather History for KPAE - October, 2011

Change the Weather History Date:

Friday, October 21, 2011

  Actual Average Record
Temperature  
Mean Temperature 52 °F -  
Max Temperature 57 °F 57 °F 70 °F (1998)
Min Temperature 48 °F 41 °F 0 °F (1998)
Degree Days  
Heating Degree Days 12    
Growing Degree Days 2 (Base 50)    
Moisture  
Dew Point 49 °F    
Average Humidity 90    
Maximum Humidity 100    
Minimum Humidity 78    
Precipitation  
Precipitation 0.30 in - - ()
Sea Level Pressure  
Sea Level Pressure 30.14 in    
Wind  
Wind Speed 6 mph (South)    
Max Wind Speed 22 mph    
Max Gust Speed 34 mph    
Visibility 6 miles    
Events Fog , Rain    
Averages and records for this station are not official NWS values.
T = Trace of Precipitation, MM = Missing Value Source: NWS Daily Summary

Daily Weather History Graph

Daily Weather History Graph

Search for Another Location

Airport or City:

Trip Planner

Search our weather history database for the weather conditions in past years. The results will help you decide how hot, cold, wet, or windy it might be!

Date:

Astronomy

Oct. 21, 2011 Rise Set
Actual Time 7:36 AM PDT 6:09 PM PDT
Civil Twilight 7:05 AM PDT 6:41 PM PDT
Nautical Twilight 6:29 AM PDT 7:17 PM PDT
Astronomical Twilight 5:53 AM PDT 7:53 PM PDT
Moon 1:06 AM PDT (10/21) 3:19 PM PDT (10/21)
Length of Visible Light 11h 36m
Length of Day
10h 32m
Waning Crescent, 32% of the Moon is Illuminated
Oct 21
Waning Crescent
Oct 26
New
Nov 2
First Quarter
Nov 10
Full
Nov 18
Last Quarter

Hourly Weather History & Observations

Time (PDT) Temp. Dew Point Humidity Pressure Visibility Wind Dir Wind Speed Gust Speed Precip Events Conditions
12:50 AM 48.2 °F 46.4 °F 93% 30.12 in 6.0 mi Calm Calm - N/A   Mostly Cloudy
12:53 AM 48.9 °F 46.9 °F 93% 30.13 in 5.0 mi Calm Calm - N/A   Mostly Cloudy
12:57 AM 48.2 °F 46.4 °F 93% 30.12 in 1.8 mi Calm Calm - N/A   Mostly Cloudy
1:02 AM 48.2 °F 46.4 °F 93% 30.12 in 0.8 mi Calm Calm - N/A   Mostly Cloudy
1:09 AM 48.2 °F 48.2 °F 100% 30.12 in 0.2 mi Calm Calm - N/A Fog Fog
1:22 AM 48.2 °F 46.4 °F 93% 30.11 in 0.5 mi ESE 3.5 mph - N/A Fog Fog
1:46 AM 48.2 °F 46.4 °F 93% 30.11 in 2.0 mi ESE 4.6 mph - N/A   Mostly Cloudy
1:53 AM 48.0 °F 46.9 °F 96% 30.12 in 2.0 mi Calm Calm - N/A   Mostly Cloudy
1:59 AM 48.2 °F 46.4 °F 93% 30.11 in 4.0 mi Calm Calm - N/A   Scattered Clouds
2:13 AM 48.2 °F 46.4 °F 93% 30.11 in 2.5 mi Calm Calm - N/A   Mostly Cloudy
2:19 AM 48.2 °F 46.4 °F 93% 30.12 in 0.8 mi Calm Calm - N/A   Mist
2:35 AM 48.2 °F 46.4 °F 93% 30.12 in 2.5 mi SSE 3.5 mph - N/A   Overcast
2:37 AM 48.2 °F 46.4 °F 93% 30.12 in 4.0 mi Calm Calm - N/A   Overcast
2:53 AM 48.9 °F 46.9 °F 93% 30.12 in 10.0 mi SSE 5.8 mph - N/A   Overcast
3:03 AM 48.2 °F 46.4 °F 93% 30.12 in 2.0 mi South 4.6 mph - N/A   Overcast
3:06 AM 48.2 °F 46.4 °F 93% 30.12 in 1.2 mi South 4.6 mph - N/A   Overcast
3:14 AM 48.2 °F 46.4 °F 93% 30.11 in 0.5 mi SSE 5.8 mph - N/A Fog Fog
3:24 AM 48.2 °F 48.2 °F 100% 30.12 in 0.5 mi South 4.6 mph - N/A Fog Fog
3:46 AM 48.2 °F 48.2 °F 100% 30.11 in 2.0 mi SSE 6.9 mph - N/A   Overcast
3:53 AM 48.9 °F 48.0 °F 97% 30.11 in 4.0 mi SSE 6.9 mph - N/A   Overcast
4:37 AM 50.0 °F 48.2 °F 94% 30.11 in 10.0 mi SSE 8.1 mph - 0.00 in Rain Light Rain
4:53 AM 50.0 °F 48.0 °F 93% 30.11 in 8.0 mi SSE 10.4 mph - 0.01 in Rain Light Rain
5:53 AM 50.0 °F 48.0 °F 93% 30.11 in 10.0 mi SSE 10.4 mph - 0.00 in Rain Light Rain
6:15 AM 51.8 °F 48.2 °F 88% 30.11 in 10.0 mi SSE 11.5 mph - 0.00 in   Overcast
6:37 AM 51.8 °F 48.2 °F 88% 30.11 in 10.0 mi SSE 10.4 mph - 0.00 in   Overcast
6:53 AM 51.1 °F 48.0 °F 89% 30.11 in 10.0 mi SSE 10.4 mph - 0.00 in   Overcast
7:18 AM 51.8 °F 48.2 °F 88% 30.11 in 10.0 mi South 10.4 mph - 0.01 in Rain Light Rain
7:53 AM 52.0 °F 48.9 °F 89% 30.12 in 9.0 mi South 11.5 mph - 0.01 in Rain Light Rain
8:00 AM 51.8 °F 48.2 °F 88% 30.11 in 9.0 mi South 9.2 mph - 0.00 in Rain Light Rain
8:53 AM 53.1 °F 50.0 °F 89% 30.13 in 6.0 mi South 12.7 mph - 0.02 in Rain Light Rain
9:11 AM 53.6 °F 50.0 °F 88% 30.12 in 7.0 mi South 11.5 mph - 0.01 in Rain Light Rain
9:53 AM 53.1 °F 50.0 °F 89% 30.14 in 5.0 mi South 13.8 mph - 0.05 in Rain Rain
10:53 AM 53.1 °F 50.0 °F 89% 30.14 in 6.0 mi South 16.1 mph - 0.07 in Rain Light Rain
11:18 AM 53.6 °F 50.0 °F 88% 30.15 in 3.0 mi South 15.0 mph 21.9 mph 0.03 in Rain Light Rain
11:53 AM 54.0 °F 50.0 °F 86% 30.15 in 5.0 mi South 19.6 mph 34.5 mph 0.05 in Rain Light Rain
12:30 PM 53.6 °F 50.0 °F 88% 30.14 in 10.0 mi South 21.9 mph 27.6 mph 0.02 in   Mostly Cloudy
12:53 PM 55.0 °F 50.0 °F 83% 30.15 in 10.0 mi South 18.4 mph 33.4 mph 0.02 in   Mostly Cloudy
1:53 PM 55.0 °F 51.1 °F 86% 30.14 in 10.0 mi SSE 16.1 mph - N/A   Overcast
2:30 PM 55.4 °F 51.8 °F 88% 30.13 in 10.0 mi SSE 9.2 mph - N/A   Mostly Cloudy
2:53 PM 57.0 °F 51.1 °F 81% 30.14 in 10.0 mi SSE 13.8 mph 18.4 mph N/A   Overcast
3:53 PM 57.9 °F 51.1 °F 78% 30.15 in 10.0 mi South 20.7 mph 29.9 mph N/A   Mostly Cloudy
4:53 PM 57.0 °F 51.1 °F 81% 30.16 in 10.0 mi South 17.3 mph 26.5 mph N/A   Mostly Cloudy
4:57 PM 57.2 °F 51.8 °F 82% 30.16 in 10.0 mi South 21.9 mph 28.8 mph N/A   Overcast
5:53 PM 57.0 °F 51.1 °F 81% 30.18 in 10.0 mi South 18.4 mph - N/A   Overcast
6:47 PM 55.4 °F 51.8 °F 88% 30.19 in 10.0 mi South 13.8 mph - N/A   Overcast
6:53 PM 55.9 °F 52.0 °F 87% 30.20 in 10.0 mi SSW 12.7 mph - N/A   Overcast
7:53 PM 55.0 °F 53.1 °F 93% 30.21 in 5.0 mi South 12.7 mph - 0.02 in Rain Light Rain
8:53 PM 55.0 °F 53.1 °F 93% 30.22 in 4.0 mi SSW 10.4 mph - 0.05 in Rain Light Rain
9:15 PM 55.4 °F 51.8 °F 88% 30.21 in 6.0 mi South 15.0 mph - 0.00 in Rain Light Rain
9:38 PM 55.4 °F 51.8 °F 88% 30.21 in 10.0 mi South 13.8 mph - 0.00 in   Overcast
9:53 PM 55.0 °F 52.0 °F 89% 30.23 in 10.0 mi South 9.2 mph - 0.00 in   Overcast
10:53 PM 55.0 °F 52.0 °F 89% 30.23 in 10.0 mi South 8.1 mph - N/A   Overcast
11:53 PM 55.0 °F 52.0 °F 89% 30.22 in 10.0 mi SSW 8.1 mph - N/A   Overcast